This is the latest recevied weather packets stored in our database for station/object KD4EG. If no packets are shown the sender has not sent any weather packets the latest 10 day(s).
| Time | Temp. | Humidity | Pressure | Rain* | Wind** | Luminosity | Snow |
|---|---|---|---|---|---|---|---|
| 1778104274 | 23.33° C | 68% | 1011.9 hPa | 0 mm | - | 88 W/m² | - |
| 1778103971 | 23.33° C | 69% | 1012 hPa | 0 mm | - | 117 W/m² | - |
| 1778103668 | 22.78° C | 70% | 1011.8 hPa | 0 mm | - | 104 W/m² | - |
| 1778103366 | 22.78° C | 69% | 1012 hPa | 0 mm | - | 99 W/m² | - |
| 1778103063 | 22.78° C | 70% | 1012 hPa | 0 mm | - | 138 W/m² | - |
| 1778102760 | 23.33° C | 71% | 1011.8 hPa | 0 mm | - | 130 W/m² | - |
| 1778102455 | 22.78° C | 70% | 1011.9 hPa | 0 mm | - | 178 W/m² | - |
| 1778102151 | 23.33° C | 70% | 1012.1 hPa | 0 mm | - | 184 W/m² | - |
| 1778101848 | 23.33° C | 70% | 1012 hPa | 0 mm | - | 122 W/m² | - |
| 1778101545 | 23.33° C | 70% | 1011.9 hPa | 0 mm | - | 182 W/m² | - |
| 1778101241 | 23.33° C | 70% | 1011.7 hPa | 0 mm | - | 174 W/m² | - |
| 1778100938 | 23.33° C | 70% | 1011.8 hPa | 0 mm | - | 277 W/m² | - |
| 1778100633 | 23.33° C | 70% | 1011.7 hPa | 0 mm | - | 269 W/m² | - |
| 1778100332 | 23.33° C | 71% | 1011.7 hPa | 0 mm | - | 262 W/m² | - |
| 1778100028 | 23.33° C | 71% | 1011.9 hPa | 0 mm | - | 253 W/m² | - |
| 1778099727 | 22.78° C | 71% | 1011.8 hPa | 0 mm | - | 258 W/m² | - |
| 1778099423 | 23.33° C | 70% | 1012.1 hPa | 0 mm | - | 237 W/m² | - |
| 1778099120 | 23.33° C | 71% | 1012 hPa | 0 mm | - | 327 W/m² | - |
| 1778098816 | 23.33° C | 71% | 1012.1 hPa | 0 mm | - | 317 W/m² | - |
| 1778098515 | 23.33° C | 71% | 1012.1 hPa | 0 mm | - | 297 W/m² | - |
| 1778098211 | 22.78° C | 72% | 1011.8 hPa | 0 mm | - | 309 W/m² | - |
| 1778097906 | 22.78° C | 72% | 1012 hPa | 0 mm | - | 430 W/m² | - |
| 1778097597 | 22.78° C | 72% | 1012.1 hPa | 0 mm | - | 378 W/m² | - |
| 1778097295 | 22.78° C | 73% | 1012.1 hPa | 0 mm | - | 357 W/m² | - |
| 1778096990 | 22.78° C | 74% | 1012 hPa | 0 mm | - | 326 W/m² | - |
* Rain latest hour (hover to see other rain measurements)
** Current wind speed in m/s (hover to see current wind gust speed)